This is the latest recevied weather packets stored in our database for station/object KF7SOJ. If no packets are shown the sender has not sent any weather packets the latest 10 day(s).
| Time | Temp. | Humidity | Pressure | Rain* | Wind** | Luminosity | Snow |
|---|---|---|---|---|---|---|---|
| 1777639495 | 5° C | 56% | 935.2 hPa | 0 mm | - | 39 W/m² | - |
| 1777639191 | 5° C | 56% | 935.2 hPa | 0 mm | - | 34 W/m² | - |
| 1777638887 | 4.44° C | 57% | 935.3 hPa | 0 mm | - | 29 W/m² | - |
| 1777638583 | 4.44° C | 58% | 935.2 hPa | 0 mm | - | 25 W/m² | - |
| 1777638280 | 3.89° C | 59% | 935 hPa | 0 mm | - | 21 W/m² | - |
| 1777637976 | 3.89° C | 60% | 935.2 hPa | 0 mm | - | 17 W/m² | - |
| 1777637672 | 3.33° C | 61% | 935.1 hPa | 0 mm | - | 13 W/m² | - |
| 1777637370 | 2.78° C | 63% | 935.1 hPa | 0 mm | - | 9 W/m² | - |
| 1777637066 | 2.78° C | 63% | 935.1 hPa | 0 mm | - | 6 W/m² | - |
| 1777636762 | 3.33° C | 61% | 935.2 hPa | 0 mm | - | 3 W/m² | - |
| 1777636458 | 3.33° C | 61% | 935.2 hPa | 0 mm | - | 2 W/m² | - |
| 1777636154 | 3.33° C | 61% | 935.4 hPa | 0 mm | - | 1 W/m² | - |
| 1777635849 | 3.33° C | 61% | 935.2 hPa | 0 mm | - | 0 W/m² | - |
| 1777635546 | 3.33° C | 61% | 935.3 hPa | 0 mm | - | 0 W/m² | - |
| 1777635243 | 3.89° C | 59% | 935.2 hPa | 0 mm | - | 0 W/m² | - |
| 1777634940 | 3.89° C | 58% | 935.2 hPa | 0 mm | - | 0 W/m² | - |
| 1777634636 | 3.89° C | 57% | 935.2 hPa | 0 mm | - | 0 W/m² | - |
| 1777634334 | 3.89° C | 57% | 935.1 hPa | 0 mm | - | 0 W/m² | - |
| 1777634029 | 3.89° C | 57% | 935.2 hPa | 0 mm | - | 0 W/m² | - |
| 1777633726 | 3.89° C | 56% | 935.4 hPa | 0 mm | - | 0 W/m² | - |
| 1777633425 | 4.44° C | 56% | 935.2 hPa | 0 mm | - | 0 W/m² | - |
| 1777633122 | 4.44° C | 57% | 935.2 hPa | 0 mm | - | 0 W/m² | - |
| 1777632818 | 3.89° C | 56% | 935.3 hPa | 0 mm | - | 0 W/m² | - |
| 1777632514 | 3.89° C | 56% | 935.3 hPa | 0 mm | - | 0 W/m² | - |
| 1777632212 | 3.89° C | 56% | 935.5 hPa | 0 mm | - | 0 W/m² | - |
* Rain latest hour (hover to see other rain measurements)
** Current wind speed in m/s (hover to see current wind gust speed)